Year,Month,Day,Hour,Minute,Value (Times are PST for temperature in C)
2016,04,20,00,00,14.10
2016,04,20,00,01,14.10
2016,04,20,00,02,14.00
2016,04,20,00,03,14.00
2016,04,20,00,04,13.90
2016,04,20,00,05,13.90
2016,04,20,00,06,13.90
2016,04,20,00,07,13.90
2016,04,20,00,08,13.90
2016,04,20,00,09,13.90
2016,04,20,00,10,13.90
2016,04,20,00,11,13.90
2016,04,20,00,12,13.90
2016,04,20,00,13,13.90
2016,04,20,00,14,13.90
2016,04,20,00,15,13.90
2016,04,20,00,16,13.90
2016,04,20,00,17,13.90
2016,04,20,00,18,13.90
2016,04,20,00,19,13.80
2016,04,20,00,20,13.80
2016,04,20,00,21,13.80
2016,04,20,00,22,13.80
2016,04,20,00,23,13.80
2016,04,20,00,24,13.80
2016,04,20,00,25,13.80
2016,04,20,00,26,13.80
2016,04,20,00,27,13.80
2016,04,20,00,28,13.80
2016,04,20,00,29,13.80
2016,04,20,00,30,13.90
2016,04,20,00,31,13.90
2016,04,20,00,32,13.80
2016,04,20,00,33,13.80
2016,04,20,00,34,13.80
2016,04,20,00,35,13.80
2016,04,20,00,36,13.80
2016,04,20,00,37,13.80
2016,04,20,00,38,13.80
2016,04,20,00,39,13.80
2016,04,20,00,40,13.70
2016,04,20,00,41,13.70
2016,04,20,00,42,13.70
2016,04,20,00,43,13.70
2016,04,20,00,44,13.70
2016,04,20,00,45,13.70
2016,04,20,00,46,13.70
2016,04,20,00,47,13.60
2016,04,20,00,48,13.60
2016,04,20,00,49,13.60
2016,04,20,00,50,13.60
2016,04,20,00,51,13.60
2016,04,20,00,52,13.60
2016,04,20,00,53,13.60
2016,04,20,00,54,13.60
2016,04,20,00,55,13.50
2016,04,20,00,56,13.50
2016,04,20,00,57,13.50
2016,04,20,00,58,13.50
2016,04,20,00,59,13.50
2016,04,20,01,00,13.50
2016,04,20,01,01,13.50
2016,04,20,01,02,13.50
2016,04,20,01,03,13.50
2016,04,20,01,04,13.50
2016,04,20,01,05,13.50
2016,04,20,01,06,13.50
2016,04,20,01,07,13.50
2016,04,20,01,08,13.50
2016,04,20,01,09,13.50
2016,04,20,01,10,13.50
2016,04,20,01,11,13.50
2016,04,20,01,12,13.50
2016,04,20,01,13,13.50
2016,04,20,01,14,13.50
2016,04,20,01,15,13.40
2016,04,20,01,16,13.40
2016,04,20,01,17,13.40
2016,04,20,01,18,13.40
2016,04,20,01,19,13.40
2016,04,20,01,20,13.40
2016,04,20,01,21,13.30
2016,04,20,01,22,13.30
2016,04,20,01,23,13.30
2016,04,20,01,24,13.30
2016,04,20,01,25,13.20
2016,04,20,01,26,13.20
2016,04,20,01,27,13.20
2016,04,20,01,28,13.10
2016,04,20,01,29,13.10
2016,04,20,01,30,13.10
2016,04,20,01,31,13.00
2016,04,20,01,32,13.00
2016,04,20,01,33,13.00
2016,04,20,01,34,12.90
2016,04,20,01,35,12.90
2016,04,20,01,36,12.90
2016,04,20,01,37,12.90
2016,04,20,01,38,12.90
2016,04,20,01,39,12.90
2016,04,20,01,40,12.90
2016,04,20,01,41,12.90
2016,04,20,01,42,12.80
2016,04,20,01,43,12.80
2016,04,20,01,44,12.80
2016,04,20,01,45,12.80
2016,04,20,01,46,12.80
2016,04,20,01,47,12.80
2016,04,20,01,48,12.80
2016,04,20,01,49,12.80
2016,04,20,01,50,12.80
2016,04,20,01,51,12.80
2016,04,20,01,52,12.80
2016,04,20,01,53,12.80
2016,04,20,01,54,12.80
2016,04,20,01,55,12.80
2016,04,20,01,56,12.80
2016,04,20,01,57,12.80
2016,04,20,01,58,12.80
2016,04,20,01,59,12.80
2016,04,20,02,00,12.80
2016,04,20,02,01,12.80
2016,04,20,02,02,12.80
2016,04,20,02,03,12.80
2016,04,20,02,04,12.80
2016,04,20,02,05,12.80
2016,04,20,02,06,12.80
2016,04,20,02,07,12.80
2016,04,20,02,08,12.80
2016,04,20,02,09,12.80
2016,04,20,02,10,12.80
2016,04,20,02,11,12.80
2016,04,20,02,12,12.80
2016,04,20,02,13,12.80
2016,04,20,02,14,12.80
2016,04,20,02,15,12.80
2016,04,20,02,16,12.80
2016,04,20,02,17,12.80
2016,04,20,02,18,12.80
2016,04,20,02,19,12.80
2016,04,20,02,20,12.80
2016,04,20,02,21,12.80
2016,04,20,02,22,12.80
2016,04,20,02,23,12.90
2016,04,20,02,24,12.90
2016,04,20,02,25,12.80
2016,04,20,02,26,12.80
2016,04,20,02,27,12.80
2016,04,20,02,28,12.80
2016,04,20,02,29,12.80
2016,04,20,02,30,12.80
2016,04,20,02,31,12.80
2016,04,20,02,32,12.80
2016,04,20,02,33,12.70
2016,04,20,02,34,12.70
2016,04,20,02,35,12.70
2016,04,20,02,36,12.70
2016,04,20,02,37,12.70
2016,04,20,02,38,12.70
2016,04,20,02,39,12.70
2016,04,20,02,40,12.70
2016,04,20,02,41,12.80
2016,04,20,02,42,12.80
2016,04,20,02,43,12.80
2016,04,20,02,44,12.80
2016,04,20,02,45,12.80
2016,04,20,02,46,12.80
2016,04,20,02,47,12.80
2016,04,20,02,48,12.80
2016,04,20,02,49,12.90
2016,04,20,02,50,12.90
2016,04,20,02,51,12.90
2016,04,20,02,52,12.90
2016,04,20,02,53,12.90
2016,04,20,02,54,12.90
2016,04,20,02,55,12.90
2016,04,20,02,56,12.90
2016,04,20,02,57,12.90
2016,04,20,02,58,12.90
2016,04,20,02,59,12.90
2016,04,20,03,00,13.00
2016,04,20,03,01,12.90
2016,04,20,03,02,12.90
2016,04,20,03,03,12.90
2016,04,20,03,04,12.90
2016,04,20,03,05,12.90
2016,04,20,03,06,12.90
2016,04,20,03,07,12.90
2016,04,20,03,08,12.90
2016,04,20,03,09,12.90
2016,04,20,03,10,12.90
2016,04,20,03,11,12.90
2016,04,20,03,12,12.90
2016,04,20,03,13,12.90
2016,04,20,03,14,12.90
2016,04,20,03,15,12.90
2016,04,20,03,16,12.90
2016,04,20,03,17,12.90
2016,04,20,03,18,12.90
2016,04,20,03,19,12.90
2016,04,20,03,20,12.80
2016,04,20,03,21,12.80
2016,04,20,03,22,12.80
2016,04,20,03,23,12.80
2016,04,20,03,24,12.80
2016,04,20,03,25,12.80
2016,04,20,03,26,12.80
2016,04,20,03,27,12.80
2016,04,20,03,28,12.70
2016,04,20,03,29,12.70
2016,04,20,03,30,12.70
2016,04,20,03,31,12.70
2016,04,20,03,32,12.70
2016,04,20,03,33,12.70
2016,04,20,03,34,12.70
2016,04,20,03,35,12.70
2016,04,20,03,36,12.60
2016,04,20,03,37,12.60
2016,04,20,03,38,12.60
2016,04,20,03,39,12.60
2016,04,20,03,40,12.50
2016,04,20,03,41,12.50
2016,04,20,03,42,12.50
2016,04,20,03,43,12.40
2016,04,20,03,44,12.40
2016,04,20,03,45,12.40
2016,04,20,03,46,12.40
2016,04,20,03,47,12.40
2016,04,20,03,48,12.40
2016,04,20,03,49,12.40
2016,04,20,03,50,12.40
2016,04,20,03,51,12.30
2016,04,20,03,52,12.30
2016,04,20,03,53,12.30
2016,04,20,03,54,12.30
2016,04,20,03,55,12.30
2016,04,20,03,56,12.30
2016,04,20,03,57,12.30
2016,04,20,03,58,12.30
2016,04,20,03,59,12.30
2016,04,20,04,00,12.30
2016,04,20,04,01,12.30
2016,04,20,04,02,12.30
2016,04,20,04,03,12.30
2016,04,20,04,04,12.30
2016,04,20,04,05,12.30
2016,04,20,04,06,12.30
2016,04,20,04,07,12.30
2016,04,20,04,08,12.30
2016,04,20,04,09,12.30
2016,04,20,04,10,12.30
2016,04,20,04,11,12.30
2016,04,20,04,12,12.20
2016,04,20,04,13,12.20
2016,04,20,04,14,12.20
2016,04,20,04,15,12.20
2016,04,20,04,16,12.20
2016,04,20,04,17,12.20
2016,04,20,04,18,12.20
2016,04,20,04,19,12.20
2016,04,20,04,20,12.20
2016,04,20,04,21,12.20
2016,04,20,04,22,12.20
2016,04,20,04,23,12.20
2016,04,20,04,24,12.20
2016,04,20,04,25,12.20
2016,04,20,04,26,12.20
2016,04,20,04,27,12.20
2016,04,20,04,28,12.20
2016,04,20,04,29,12.20
2016,04,20,04,30,12.20
2016,04,20,04,31,12.20
2016,04,20,04,32,12.20
2016,04,20,04,33,12.20
2016,04,20,04,34,12.20
2016,04,20,04,35,12.30
2016,04,20,04,36,12.30
2016,04,20,04,37,12.30
2016,04,20,04,38,12.30
2016,04,20,04,39,12.30
2016,04,20,04,40,12.30
2016,04,20,04,41,12.30
2016,04,20,04,42,12.20
2016,04,20,04,43,12.20
2016,04,20,04,44,12.20
2016,04,20,04,45,12.20
2016,04,20,04,46,12.20
2016,04,20,04,47,12.20
2016,04,20,04,48,12.20
2016,04,20,04,49,12.20
2016,04,20,04,50,12.20
2016,04,20,04,51,12.20
2016,04,20,04,52,12.20
2016,04,20,04,53,12.20
2016,04,20,04,54,12.20
2016,04,20,04,55,12.10
2016,04,20,04,56,12.10
2016,04,20,04,57,12.10
2016,04,20,04,58,12.10
2016,04,20,04,59,12.10
2016,04,20,05,00,12.10
2016,04,20,05,01,12.10
2016,04,20,05,02,12.10
2016,04,20,05,03,12.00
2016,04,20,05,04,12.00
2016,04,20,05,05,12.00
2016,04,20,05,06,12.00
2016,04,20,05,07,11.90
2016,04,20,05,08,11.90
2016,04,20,05,09,11.90
2016,04,20,05,10,11.90
2016,04,20,05,11,11.90
2016,04,20,05,12,11.90
2016,04,20,05,13,11.90
2016,04,20,05,14,11.90
2016,04,20,05,15,11.90
2016,04,20,05,16,11.90
2016,04,20,05,17,11.90
2016,04,20,05,18,11.90
2016,04,20,05,19,11.90
2016,04,20,05,20,11.90
2016,04,20,05,21,11.80
2016,04,20,05,22,11.80
2016,04,20,05,23,11.80
2016,04,20,05,24,11.80
2016,04,20,05,25,11.80
2016,04,20,05,26,11.80
2016,04,20,05,27,11.80
2016,04,20,05,28,11.80
2016,04,20,05,29,11.80
2016,04,20,05,30,11.80
2016,04,20,05,31,11.80
2016,04,20,05,32,11.80
2016,04,20,05,33,11.80
2016,04,20,05,34,11.80
2016,04,20,05,35,11.80
2016,04,20,05,36,11.80
2016,04,20,05,37,11.80
2016,04,20,05,38,11.80
2016,04,20,05,39,11.80
2016,04,20,05,40,11.80
2016,04,20,05,41,11.80
2016,04,20,05,42,11.80
2016,04,20,05,43,11.80
2016,04,20,05,44,11.80
2016,04,20,05,45,11.80
2016,04,20,05,46,11.80
2016,04,20,05,47,11.80
2016,04,20,05,48,11.80
2016,04,20,05,49,11.80
2016,04,20,05,50,11.80
2016,04,20,05,51,11.80
2016,04,20,05,52,11.80
2016,04,20,05,53,11.80
2016,04,20,05,54,11.80
2016,04,20,05,55,11.80
2016,04,20,05,56,11.80
2016,04,20,05,57,11.80
2016,04,20,05,58,11.70
2016,04,20,05,59,11.70
2016,04,20,06,00,11.70
2016,04,20,06,01,11.70
2016,04,20,06,02,11.70
2016,04,20,06,03,11.70
2016,04,20,06,04,11.70
2016,04,20,06,05,11.70
2016,04,20,06,06,11.70
2016,04,20,06,07,11.70
2016,04,20,06,08,11.70
2016,04,20,06,09,11.70
2016,04,20,06,10,11.70
2016,04,20,06,11,11.70
2016,04,20,06,12,11.70
2016,04,20,06,13,11.70
2016,04,20,06,14,11.70
2016,04,20,06,15,11.70
2016,04,20,06,16,11.70
2016,04,20,06,17,11.70
2016,04,20,06,18,11.60
2016,04,20,06,19,11.60
2016,04,20,06,20,11.60
2016,04,20,06,21,11.60
2016,04,20,06,22,11.60
2016,04,20,06,23,11.60
2016,04,20,06,24,11.60
2016,04,20,06,25,11.60
2016,04,20,06,26,11.60
2016,04,20,06,27,11.60
2016,04,20,06,28,11.60
2016,04,20,06,29,11.60
2016,04,20,06,30,11.60
2016,04,20,06,31,11.60
2016,04,20,06,32,11.60
2016,04,20,06,33,11.60
2016,04,20,06,34,11.60
2016,04,20,06,35,11.60
2016,04,20,06,36,11.60
2016,04,20,06,37,11.60
2016,04,20,06,38,11.60
2016,04,20,06,39,11.60
2016,04,20,06,40,11.70
2016,04,20,06,41,11.70
2016,04,20,06,42,11.70
2016,04,20,06,43,11.70
2016,04,20,06,44,11.70
2016,04,20,06,45,11.70
2016,04,20,06,46,11.80
2016,04,20,06,47,11.80
2016,04,20,06,48,11.80
2016,04,20,06,49,11.80
2016,04,20,06,50,11.80
2016,04,20,06,51,11.80
2016,04,20,06,52,11.80
2016,04,20,06,53,11.80
2016,04,20,06,54,11.80
2016,04,20,06,55,11.80
2016,04,20,06,56,11.80
2016,04,20,06,57,11.80
2016,04,20,06,58,11.80
2016,04,20,06,59,11.80
2016,04,20,07,00,11.80
2016,04,20,07,01,11.80
2016,04,20,07,02,11.80
2016,04,20,07,03,11.80
2016,04,20,07,04,11.80
2016,04,20,07,05,11.80
2016,04,20,07,06,11.80
2016,04,20,07,07,11.80
2016,04,20,07,08,11.80
2016,04,20,07,09,11.80
2016,04,20,07,10,11.80
2016,04,20,07,11,11.80
2016,04,20,07,12,11.80
2016,04,20,07,13,11.80
2016,04,20,07,14,11.80
2016,04,20,07,15,11.90
2016,04,20,07,16,11.90
2016,04,20,07,17,11.90
2016,04,20,07,18,11.90
2016,04,20,07,19,11.90
2016,04,20,07,20,12.00
2016,04,20,07,21,12.00
2016,04,20,07,22,12.00
2016,04,20,07,23,12.00
2016,04,20,07,24,12.10
2016,04,20,07,25,12.10
2016,04,20,07,26,12.10
2016,04,20,07,27,12.10
2016,04,20,07,28,12.20
2016,04,20,07,29,12.20
2016,04,20,07,30,12.20
2016,04,20,07,31,12.30
2016,04,20,07,32,12.30
2016,04,20,07,33,12.30
2016,04,20,07,34,12.40
2016,04,20,07,35,12.40
2016,04,20,07,36,12.50
2016,04,20,07,37,12.60
2016,04,20,07,38,12.60
2016,04,20,07,39,12.70
2016,04,20,07,40,12.70
2016,04,20,07,41,12.80
2016,04,20,07,42,12.90
2016,04,20,07,43,13.00
2016,04,20,07,44,13.10
2016,04,20,07,45,13.20
2016,04,20,07,46,13.20
2016,04,20,07,47,13.30
2016,04,20,07,48,13.30
2016,04,20,07,49,13.40
2016,04,20,07,50,13.50
2016,04,20,07,51,13.60
2016,04,20,07,52,13.70
2016,04,20,07,53,13.80
2016,04,20,07,54,13.90
2016,04,20,07,55,14.00
2016,04,20,07,56,14.10
2016,04,20,07,57,14.10
2016,04,20,07,58,14.20
2016,04,20,07,59,14.20
2016,04,20,08,00,14.20
2016,04,20,08,01,14.20
2016,04,20,08,02,14.20
2016,04,20,08,03,14.10
2016,04,20,08,04,14.10
2016,04,20,08,05,14.10
2016,04,20,08,06,14.10
2016,04,20,08,07,14.20
2016,04,20,08,08,14.20
2016,04,20,08,09,14.30
2016,04,20,08,10,14.40
2016,04,20,08,11,14.40
2016,04,20,08,12,14.40
2016,04,20,08,13,14.30
2016,04,20,08,14,14.30
2016,04,20,08,15,14.30
2016,04,20,08,16,14.40
2016,04,20,08,17,14.40
2016,04,20,08,18,14.50
2016,04,20,08,19,14.50
2016,04,20,08,20,14.60
2016,04,20,08,21,14.60
2016,04,20,08,22,14.70
2016,04,20,08,23,14.70
2016,04,20,08,24,14.70
2016,04,20,08,25,14.80
2016,04,20,08,26,14.80
2016,04,20,08,27,14.80
2016,04,20,08,28,14.80
2016,04,20,08,29,14.90
2016,04,20,08,30,14.90
2016,04,20,08,31,14.90
2016,04,20,08,32,15.00
2016,04,20,08,33,15.00
2016,04,20,08,34,15.00
2016,04,20,08,35,15.10
2016,04,20,08,36,15.10
2016,04,20,08,37,15.10
2016,04,20,08,38,15.10
2016,04,20,08,39,15.10
2016,04,20,08,40,15.10
2016,04,20,08,41,15.20
2016,04,20,08,42,15.20
2016,04,20,08,43,15.20
2016,04,20,08,44,15.20
2016,04,20,08,45,15.30
2016,04,20,08,46,15.30
2016,04,20,08,47,15.30
2016,04,20,08,48,15.40
2016,04,20,08,49,15.40
2016,04,20,08,50,15.40
2016,04,20,08,51,15.50
2016,04,20,08,52,15.50
2016,04,20,08,53,15.50
2016,04,20,08,54,15.60
2016,04,20,08,55,15.60
2016,04,20,08,56,15.70
2016,04,20,08,57,15.80
2016,04,20,08,58,15.80
2016,04,20,08,59,15.80
2016,04,20,09,00,15.90
2016,04,20,09,01,15.90
2016,04,20,09,02,15.90
2016,04,20,09,03,15.90
2016,04,20,09,04,15.90
2016,04,20,09,05,15.90
2016,04,20,09,06,15.90
2016,04,20,09,07,15.90
2016,04,20,09,08,16.00
2016,04,20,09,09,16.00
2016,04,20,09,10,16.10
2016,04,20,09,11,16.20
2016,04,20,09,12,16.20
2016,04,20,09,13,16.20
2016,04,20,09,14,16.30
2016,04,20,09,15,16.30
2016,04,20,09,16,16.30
2016,04,20,09,17,16.40
2016,04,20,09,18,16.40
2016,04,20,09,19,16.40
2016,04,20,09,20,16.40
2016,04,20,09,21,16.40
2016,04,20,09,22,16.40
2016,04,20,09,23,16.50
2016,04,20,09,24,16.50
2016,04,20,09,25,16.60
2016,04,20,09,26,16.60
2016,04,20,09,27,16.70
2016,04,20,09,28,16.70
2016,04,20,09,29,16.80
2016,04,20,09,30,16.80
2016,04,20,09,31,16.80
2016,04,20,09,32,16.80
2016,04,20,09,33,16.80
2016,04,20,09,34,16.80
2016,04,20,09,35,16.80
2016,04,20,09,36,16.80
2016,04,20,09,37,16.90
2016,04,20,09,38,16.90
2016,04,20,09,39,16.90
2016,04,20,09,40,17.00
2016,04,20,09,41,17.00
2016,04,20,09,42,17.00
2016,04,20,09,43,17.10
2016,04,20,09,44,17.20
2016,04,20,09,45,17.20
2016,04,20,09,46,17.20
2016,04,20,09,47,17.30
2016,04,20,09,48,17.30
2016,04,20,09,49,17.30
2016,04,20,09,50,17.40
2016,04,20,09,51,17.40
2016,04,20,09,52,17.40
2016,04,20,09,53,17.40
2016,04,20,09,54,17.50
2016,04,20,09,55,17.50
2016,04,20,09,56,17.50
2016,04,20,09,57,17.60
2016,04,20,09,58,17.60
2016,04,20,09,59,17.60
2016,04,20,10,00,17.70
2016,04,20,10,01,17.70
2016,04,20,10,02,17.80
2016,04,20,10,03,17.80
2016,04,20,10,04,17.90
2016,04,20,10,05,17.90
2016,04,20,10,06,18.00
2016,04,20,10,07,18.10
2016,04,20,10,08,18.20
2016,04,20,10,09,18.20
2016,04,20,10,10,18.20
2016,04,20,10,11,18.30
2016,04,20,10,12,18.30
2016,04,20,10,13,18.40
2016,04,20,10,14,18.40
2016,04,20,10,15,18.30
2016,04,20,10,16,18.30
2016,04,20,10,17,18.30
2016,04,20,10,18,18.30
2016,04,20,10,19,18.30
2016,04,20,10,20,18.40
2016,04,20,10,21,18.40
2016,04,20,10,22,18.50
2016,04,20,10,23,18.50
2016,04,20,10,24,18.60
2016,04,20,10,25,18.70
2016,04,20,10,26,18.70
2016,04,20,10,27,18.70
2016,04,20,10,28,18.70
2016,04,20,10,29,18.80
2016,04,20,10,30,18.80
2016,04,20,10,31,18.80
2016,04,20,10,32,18.80
2016,04,20,10,33,18.80
2016,04,20,10,34,18.70
2016,04,20,10,35,18.70
2016,04,20,10,36,18.70
2016,04,20,10,37,18.70
2016,04,20,10,38,18.80
2016,04,20,10,39,18.80
2016,04,20,10,40,18.90
2016,04,20,10,41,18.90
2016,04,20,10,42,18.90
2016,04,20,10,43,18.90
2016,04,20,10,44,19.00
2016,04,20,10,45,18.90
2016,04,20,10,46,18.90
2016,04,20,10,47,19.00
2016,04,20,10,48,19.10
2016,04,20,10,49,19.20
2016,04,20,10,50,19.20
2016,04,20,10,51,19.30
2016,04,20,10,52,19.40
2016,04,20,10,53,19.50
2016,04,20,10,54,19.60
2016,04,20,10,55,19.70
2016,04,20,10,56,19.70
2016,04,20,10,57,19.60
2016,04,20,10,58,19.50
2016,04,20,10,59,19.50
2016,04,20,11,00,19.40
2016,04,20,11,01,19.50
2016,04,20,11,02,19.60
2016,04,20,11,03,19.60
2016,04,20,11,04,19.70
2016,04,20,11,05,19.70
2016,04,20,11,06,19.70
2016,04,20,11,07,19.90
2016,04,20,11,08,20.00
2016,04,20,11,09,20.20
2016,04,20,11,10,20.30
2016,04,20,11,11,20.40
2016,04,20,11,12,20.50
2016,04,20,11,13,20.60
2016,04,20,11,14,20.70
2016,04,20,11,15,20.70
2016,04,20,11,16,20.80
2016,04,20,11,17,20.80
2016,04,20,11,18,20.90
2016,04,20,11,19,20.90
2016,04,20,11,20,21.00
2016,04,20,11,21,21.00
2016,04,20,11,22,21.10
2016,04,20,11,23,21.10
2016,04,20,11,24,21.20
2016,04,20,11,25,21.20
2016,04,20,11,26,21.10
2016,04,20,11,27,21.20
2016,04,20,11,28,21.20
2016,04,20,11,29,21.20
2016,04,20,11,30,21.30
2016,04,20,11,31,21.30
2016,04,20,11,32,21.30
2016,04,20,11,33,21.30
2016,04,20,11,34,21.30
2016,04,20,11,35,21.30
2016,04,20,11,36,21.30
2016,04,20,11,37,21.30
2016,04,20,11,38,21.30
2016,04,20,11,39,21.40
2016,04,20,11,40,21.40
2016,04,20,11,41,21.50
2016,04,20,11,42,21.50
2016,04,20,11,43,21.50
2016,04,20,11,44,21.50
2016,04,20,11,45,21.50
2016,04,20,11,46,21.50
2016,04,20,11,47,21.50
2016,04,20,11,48,21.50
2016,04,20,11,49,21.60
2016,04,20,11,50,21.60
2016,04,20,11,51,21.60
2016,04,20,11,52,21.60
2016,04,20,11,53,21.60
2016,04,20,11,54,21.60
2016,04,20,11,55,21.50
2016,04,20,11,56,21.50
2016,04,20,11,57,21.50
2016,04,20,11,58,21.50
2016,04,20,11,59,21.50
2016,04,20,12,00,21.60
2016,04,20,12,01,21.60
2016,04,20,12,02,21.60
2016,04,20,12,03,21.70
2016,04,20,12,04,21.80
2016,04,20,12,05,21.90
2016,04,20,12,06,21.90
2016,04,20,12,07,22.00
2016,04,20,12,08,22.10
2016,04,20,12,09,22.10
2016,04,20,12,10,22.20
2016,04,20,12,11,22.20
2016,04,20,12,12,22.20
2016,04,20,12,13,22.20
2016,04,20,12,14,22.20
2016,04,20,12,15,22.20
2016,04,20,12,16,22.20
2016,04,20,12,17,22.20
2016,04,20,12,18,22.30
2016,04,20,12,19,22.30
2016,04,20,12,20,22.40
2016,04,20,12,21,22.50
2016,04,20,12,22,22.60
2016,04,20,12,23,22.60
2016,04,20,12,24,22.60
2016,04,20,12,25,22.70
2016,04,20,12,26,22.70
2016,04,20,12,27,22.60
2016,04,20,12,28,22.60
2016,04,20,12,29,22.70
2016,04,20,12,30,22.70
2016,04,20,12,31,22.70
2016,04,20,12,32,22.80
2016,04,20,12,33,22.80
2016,04,20,12,34,22.90
2016,04,20,12,35,22.90
2016,04,20,12,36,22.90
2016,04,20,12,37,22.80
2016,04,20,12,38,22.80
2016,04,20,12,39,22.80
2016,04,20,12,40,22.80
2016,04,20,12,41,22.80
2016,04,20,12,42,22.80
2016,04,20,12,43,22.90
2016,04,20,12,44,23.00
2016,04,20,12,45,23.00
2016,04,20,12,46,23.00
2016,04,20,12,47,23.00
2016,04,20,12,48,22.90
2016,04,20,12,49,22.90
2016,04,20,12,50,23.00
2016,04,20,12,51,23.00
2016,04,20,12,52,23.10
2016,04,20,12,53,23.10
2016,04,20,12,54,23.20
2016,04,20,12,55,23.20
2016,04,20,12,56,23.20
2016,04,20,12,57,23.30
2016,04,20,12,58,23.30
2016,04,20,12,59,23.30
2016,04,20,13,00,23.40
2016,04,20,13,01,23.40
2016,04,20,13,02,23.50
2016,04,20,13,03,23.50
2016,04,20,13,04,23.60
2016,04,20,13,05,23.70
2016,04,20,13,06,23.70
2016,04,20,13,07,23.70
2016,04,20,13,08,23.70
2016,04,20,13,09,23.70
2016,04,20,13,10,23.80
2016,04,20,13,11,23.80
2016,04,20,13,12,23.80
2016,04,20,13,13,23.90
2016,04,20,13,14,23.90
2016,04,20,13,15,23.90
2016,04,20,13,16,23.90
2016,04,20,13,17,23.90
2016,04,20,13,18,23.90
2016,04,20,13,19,23.90
2016,04,20,13,20,23.90
2016,04,20,13,21,23.90
2016,04,20,13,22,23.90
2016,04,20,13,23,23.90
2016,04,20,13,24,23.90
2016,04,20,13,25,23.90
2016,04,20,13,26,24.00
2016,04,20,13,27,24.10
2016,04,20,13,28,24.10
2016,04,20,13,29,24.10
2016,04,20,13,30,24.10
2016,04,20,13,31,24.00
2016,04,20,13,32,23.90
2016,04,20,13,33,23.90
2016,04,20,13,34,23.90
2016,04,20,13,35,23.90
2016,04,20,13,36,24.00
2016,04,20,13,37,24.00
2016,04,20,13,38,24.10
2016,04,20,13,39,24.20
2016,04,20,13,40,24.20
2016,04,20,13,41,24.20
2016,04,20,13,42,24.20
2016,04,20,13,43,24.20
2016,04,20,13,44,24.10
2016,04,20,13,45,24.10
2016,04,20,13,46,24.00
2016,04,20,13,47,23.90
2016,04,20,13,48,23.90
2016,04,20,13,49,23.90
2016,04,20,13,50,24.00
2016,04,20,13,51,24.00
2016,04,20,13,52,24.10
2016,04,20,13,53,24.10
2016,04,20,13,54,24.20
2016,04,20,13,55,24.20
2016,04,20,13,56,24.20
2016,04,20,13,57,24.20
2016,04,20,13,58,24.20
2016,04,20,13,59,24.20
2016,04,20,14,00,24.10
2016,04,20,14,01,24.10
2016,04,20,14,02,24.10
2016,04,20,14,03,24.10
2016,04,20,14,04,24.10
2016,04,20,14,05,24.20
2016,04,20,14,06,24.20
2016,04,20,14,07,24.30
2016,04,20,14,08,24.40
2016,04,20,14,09,24.50
2016,04,20,14,10,24.60
2016,04,20,14,11,24.60
2016,04,20,14,12,24.60
2016,04,20,14,13,24.70
2016,04,20,14,14,24.70
2016,04,20,14,15,24.80
2016,04,20,14,16,24.90
2016,04,20,14,17,25.00
2016,04,20,14,18,25.20
2016,04,20,14,19,25.30
2016,04,20,14,20,25.40
2016,04,20,14,21,25.40
2016,04,20,14,22,25.40
2016,04,20,14,23,25.40
2016,04,20,14,24,25.40
2016,04,20,14,25,25.20
2016,04,20,14,26,24.90
2016,04,20,14,27,24.60
2016,04,20,14,28,24.40
2016,04,20,14,29,24.10
2016,04,20,14,30,23.90
2016,04,20,14,31,23.70
2016,04,20,14,32,23.50
2016,04,20,14,33,23.40
2016,04,20,14,34,23.40
2016,04,20,14,35,23.50
2016,04,20,14,36,23.60
2016,04,20,14,37,23.60
2016,04,20,14,38,23.60
2016,04,20,14,39,23.60
2016,04,20,14,40,23.60
2016,04,20,14,41,23.70
2016,04,20,14,42,23.80
2016,04,20,14,43,23.90
2016,04,20,14,44,23.90
2016,04,20,14,45,23.90
2016,04,20,14,46,23.80
2016,04,20,14,47,23.80
2016,04,20,14,48,23.90
2016,04,20,14,49,23.90
2016,04,20,14,50,23.90
2016,04,20,14,51,24.00
2016,04,20,14,52,24.00
2016,04,20,14,53,23.90
2016,04,20,14,54,23.80
2016,04,20,14,55,23.80
2016,04,20,14,56,23.70
2016,04,20,14,57,23.70
2016,04,20,14,58,23.80
2016,04,20,14,59,23.80
2016,04,20,15,00,23.90
2016,04,20,15,01,24.00
2016,04,20,15,02,24.00
2016,04,20,15,03,24.00
2016,04,20,15,04,24.10
2016,04,20,15,05,24.20
2016,04,20,15,06,24.30
2016,04,20,15,07,24.50
2016,04,20,15,08,24.60
2016,04,20,15,09,24.80
2016,04,20,15,10,24.90
2016,04,20,15,11,24.90
2016,04,20,15,12,24.90
2016,04,20,15,13,24.80
2016,04,20,15,14,24.80
2016,04,20,15,15,24.70
2016,04,20,15,16,24.70
2016,04,20,15,17,24.60
2016,04,20,15,18,24.60
2016,04,20,15,19,24.50
2016,04,20,15,20,24.50
2016,04,20,15,21,24.50
2016,04,20,15,22,24.50
2016,04,20,15,23,24.40
2016,04,20,15,24,24.20
2016,04,20,15,25,24.00
2016,04,20,15,26,23.80
2016,04,20,15,27,23.60
2016,04,20,15,28,23.50
2016,04,20,15,29,23.40
2016,04,20,15,30,23.20
2016,04,20,15,31,23.10
2016,04,20,15,32,23.00
2016,04,20,15,33,22.90
2016,04,20,15,34,22.80
2016,04,20,15,35,22.70
2016,04,20,15,36,22.70
2016,04,20,15,37,22.80
2016,04,20,15,38,22.80
2016,04,20,15,39,22.80
2016,04,20,15,40,22.80
2016,04,20,15,41,22.80
2016,04,20,15,42,22.80
2016,04,20,15,43,22.80
2016,04,20,15,44,22.80
2016,04,20,15,45,22.70
2016,04,20,15,46,22.70
2016,04,20,15,47,22.70
2016,04,20,15,48,22.70
2016,04,20,15,49,22.70
2016,04,20,15,50,22.70
2016,04,20,15,51,22.60
2016,04,20,15,52,22.60
2016,04,20,15,53,22.70
2016,04,20,15,54,22.80
2016,04,20,15,55,22.90
2016,04,20,15,56,22.90
2016,04,20,15,57,22.90
2016,04,20,15,58,22.80
2016,04,20,15,59,22.70
2016,04,20,16,00,22.60
2016,04,20,16,01,22.50
2016,04,20,16,02,22.40
2016,04,20,16,03,22.40
2016,04,20,16,04,22.30
2016,04,20,16,05,22.40
2016,04,20,16,06,22.40
2016,04,20,16,07,22.30
2016,04,20,16,08,22.30
2016,04,20,16,09,22.30
2016,04,20,16,10,22.30
2016,04,20,16,11,22.40
2016,04,20,16,12,22.60
2016,04,20,16,13,22.70
2016,04,20,16,14,22.80
2016,04,20,16,15,23.00
2016,04,20,16,16,23.10
2016,04,20,16,17,23.10
2016,04,20,16,18,23.20
2016,04,20,16,19,23.20
2016,04,20,16,20,23.10
2016,04,20,16,21,23.10
2016,04,20,16,22,23.10
2016,04,20,16,23,23.10
2016,04,20,16,24,23.10
2016,04,20,16,25,23.10
2016,04,20,16,26,23.10
2016,04,20,16,27,23.10
2016,04,20,16,28,23.10
2016,04,20,16,29,23.10
2016,04,20,16,30,23.00
2016,04,20,16,31,23.00
2016,04,20,16,32,23.00
2016,04,20,16,33,23.10
2016,04,20,16,34,23.20
2016,04,20,16,35,23.30
2016,04,20,16,36,23.40
2016,04,20,16,37,23.50
2016,04,20,16,38,23.60
2016,04,20,16,39,23.60
2016,04,20,16,40,23.70
2016,04,20,16,41,23.70
2016,04,20,16,42,23.70
2016,04,20,16,43,23.80
2016,04,20,16,44,23.80
2016,04,20,16,45,23.80
2016,04,20,16,46,23.80
2016,04,20,16,47,23.80
2016,04,20,16,48,23.80
2016,04,20,16,49,23.80
2016,04,20,16,50,23.80
2016,04,20,16,51,23.80
2016,04,20,16,52,23.80
2016,04,20,16,53,23.70
2016,04,20,16,54,23.60
2016,04,20,16,55,23.60
2016,04,20,16,56,23.60
2016,04,20,16,57,23.60
2016,04,20,16,58,23.60
2016,04,20,16,59,23.60
2016,04,20,17,00,23.60
2016,04,20,17,01,23.60
2016,04,20,17,02,23.50
2016,04,20,17,03,23.40
2016,04,20,17,04,23.40
2016,04,20,17,05,23.40
2016,04,20,17,06,23.30
2016,04,20,17,07,23.30
2016,04,20,17,08,23.30
2016,04,20,17,09,23.30
2016,04,20,17,10,23.30
2016,04,20,17,11,23.30
2016,04,20,17,12,23.30
2016,04,20,17,13,23.30
2016,04,20,17,14,23.20
2016,04,20,17,15,23.20
2016,04,20,17,16,23.20
2016,04,20,17,17,23.20
2016,04,20,17,18,23.20
2016,04,20,17,19,23.20